Location: Beugnon
(47.6222°N, 3.7850°E)
Time: 04:58:30
(UTC+00:00)

Cosmos 2360 Rocket - Pass Details

Date: 09 April 2020
Orbit: 834 x 845 km, 71.0° (Epoch: 01 June)

Event Time Altitude Azimuth Distance (km) Brightness Sun altitude
Rises 23:13:03 0° 334° (NNW) 3,394 6.3 -33.9°
Reaches altitude 10° 23:15:32 10° 338° (NNW) 2,457 5.4 -33.9°
Enters shadow 23:19:35 44° 4° (N) 1,147 3.1 -34.0°
